Change the Weather History Date:

Wednesday, December 18, 2013

  Actual Average (KTVC) Record (KTVC)
Temperature  
Mean Temperature 30 °F 26 °F  
Max Temperature 36 °F 31 °F 49 °F (1931)
Min Temperature 23 °F 20 °F -3 °F (1926)
Degree Days  
Heating Degree Days 36 39  
Month to date heating degree days 658  
Since 1 July heating degree days 2277  
Moisture  
Dew Point 19 °F    
Average Humidity 75    
Maximum Humidity 81    
Minimum Humidity 67    
Precipitation  
Precipitation 0.00 in 0.07 in 0.62 in (1977)
Month to date precipitation 1.43  
Year to date precipitation 31.99  
Sea Level Pressure  
Sea Level Pressure 29.90 in    
Wind  
Wind Speed 10 mph (WSW)    
Max Wind Speed 15 mph    
Max Gust Speed 25 mph    
Visibility 10 miles    
Events Snow    
T = Trace of Precipitation, MM = Missing Value Source: NWS Daily Summary

Daily Weather History Graph

Daily Weather History Graph

Search for Another Location

Airport or City:

Trip Planner

Search our weather history database for the weather conditions in past years. The results will help you decide how hot, cold, wet, or windy it might be!

Date:

Astronomy

Dec. 18, 2013 Rise Set
Actual Time 8:17 AM EST 5:06 PM EST
Civil Twilight 7:43 AM EST 5:39 PM EST
Nautical Twilight 7:06 AM EST 6:16 PM EST
Astronomical Twilight 6:30 AM EST 6:52 PM EST
Moon 6:41 PM EST (12/18) 8:53 AM EST (12/18)
Length of Visible Light 9h 56m
Length of Day
8h 49m
Full, 98% of the Moon is Illuminated
Dec 18
Full
Dec 25
Last Quarter
Jan 1
New
Jan 7
First Quarter
Jan 15
Full

Hourly Weather History & Observations

Time (EST) Temp. Windchill Dew Point Humidity Pressure Visibility Wind Dir Wind Speed Gust Speed Precip Events Conditions
12:14 AM 29.3 °F 19.1 °F 22.3 °F 75% 29.91 in 10.0 mi NW 12.7 mph - N/A   Overcast
12:34 AM 29.1 °F 19.4 °F 21.9 °F 74% 29.91 in 10.0 mi NW 11.5 mph 17.3 mph N/A   Overcast
12:54 AM 28.8 °F 20.9 °F 22.1 °F 76% 29.92 in 10.0 mi NNW 8.1 mph - N/A   Overcast
1:14 AM 28.2 °F 18.9 °F 21.2 °F 75% 29.92 in 10.0 mi NNW 10.4 mph 17.3 mph N/A   Overcast
1:32 AM 27.5 °F 16.8 °F 20.7 °F 75% 29.93 in 10.0 mi NNW 12.7 mph - N/A Snow Light Snow
1:52 AM 27.1 °F 17.5 °F 20.8 °F 77% 29.93 in 10.0 mi NW 10.4 mph - N/A Snow Light Snow
2:12 AM 26.6 °F 16.2 °F 21.2 °F 80% 29.94 in 5.0 mi NW 11.5 mph 16.1 mph N/A Snow Light Snow
2:32 AM 26.2 °F 15.8 °F 21.0 °F 81% 29.94 in 4.0 mi NW 11.5 mph - N/A Snow Light Snow
2:52 AM 25.7 °F 16.4 °F 20.7 °F 81% 29.95 in 10.0 mi NW 9.2 mph - N/A Snow Light Snow
3:12 AM 25.7 °F 15.7 °F 19.2 °F 76% 29.96 in 10.0 mi NW 10.4 mph 16.1 mph N/A Snow Light Snow
3:32 AM 25.5 °F 15.5 °F 18.5 °F 75% 29.96 in 10.0 mi NW 10.4 mph - N/A Snow Light Snow
3:52 AM 25.5 °F 16.9 °F 18.3 °F 74% 29.96 in 10.0 mi NW 8.1 mph - N/A   Overcast
4:13 AM 25.3 °F 16.7 °F 18.3 °F 75% 29.96 in 10.0 mi NW 8.1 mph - N/A Snow Light Snow
4:33 AM 25.3 °F 17.6 °F 18.1 °F 74% 29.96 in 10.0 mi NW 6.9 mph - N/A   Overcast
4:53 AM 25.5 °F 16.2 °F 18.0 °F 73% 29.96 in 10.0 mi WNW 9.2 mph - N/A Snow Light Snow
5:13 AM 25.5 °F 15.5 °F 17.1 °F 70% 29.97 in 10.0 mi WNW 10.4 mph - N/A   Overcast
5:33 AM 25.3 °F 16.0 °F 17.2 °F 71% 29.98 in 10.0 mi WNW 9.2 mph - N/A   Overcast
5:53 AM 25.2 °F 15.7 °F 16.9 °F 71% 29.98 in 10.0 mi WNW 9.2 mph - N/A   Overcast
6:13 AM 24.8 °F 15.3 °F 16.2 °F 70% 29.98 in 10.0 mi WNW 9.2 mph - N/A   Overcast
6:33 AM 24.4 °F 16.5 °F 15.3 °F 68% 29.98 in 10.0 mi NW 6.9 mph - N/A   Overcast
6:54 AM 24.4 °F 14.9 °F 15.4 °F 69% 30.00 in 10.0 mi WNW 9.2 mph - N/A   Overcast
7:14 AM 24.1 °F 15.2 °F 14.9 °F 68% 29.99 in 10.0 mi WNW 8.1 mph - N/A   Overcast
7:34 AM 23.9 °F 16.8 °F 16.2 °F 72% 29.99 in 10.0 mi WNW 5.8 mph - N/A   Overcast
7:54 AM 24.3 °F 13.9 °F 16.7 °F 73% 30.00 in 10.0 mi West 10.4 mph - N/A   Overcast
8:14 AM 23.7 °F 15.6 °F 16.7 °F 75% 30.01 in 10.0 mi WNW 6.9 mph - N/A   Overcast
8:34 AM 23.7 °F 13.3 °F 17.1 °F 76% 30.01 in 10.0 mi WNW 10.4 mph 17.3 mph N/A   Overcast
8:54 AM 23.7 °F 14.0 °F 16.7 °F 75% 30.02 in 10.0 mi West 9.2 mph - N/A   Overcast
9:14 AM 23.7 °F 14.7 °F 16.9 °F 75% 30.01 in 10.0 mi WNW 8.1 mph - N/A   Overcast
9:34 AM 23.7 °F 17.8 °F 16.5 °F 74% 30.01 in 10.0 mi West 4.6 mph - N/A   Overcast
9:54 AM 23.9 °F 15.8 °F 16.7 °F 74% 30.02 in 10.0 mi West 6.9 mph - N/A   Overcast
10:14 AM 24.1 °F 18.2 °F 17.2 °F 75% 30.01 in 10.0 mi West 4.6 mph - N/A   Overcast
10:35 AM 24.4 °F 16.5 °F 17.2 °F 74% 30.01 in 10.0 mi WSW 6.9 mph - N/A   Overcast
10:55 AM 23.9 °F 14.2 °F 16.7 °F 74% 30.02 in 10.0 mi SW 9.2 mph - N/A   Overcast
11:15 AM 23.5 °F 13.7 °F 17.4 °F 77% 30.02 in 10.0 mi SW 9.2 mph - N/A   Overcast
11:35 AM 23.9 °F 15.0 °F 17.6 °F 77% 30.01 in 10.0 mi SSW 8.1 mph - N/A   Overcast
11:55 AM 23.9 °F 13.5 °F 17.6 °F 77% 30.01 in 10.0 mi WSW 10.4 mph - N/A   Overcast
12:15 PM 23.9 °F 14.2 °F 17.6 °F 77% 30.00 in 10.0 mi SW 9.2 mph 16.1 mph N/A   Overcast
12:35 PM 23.7 °F 13.3 °F 17.6 °F 77% 29.99 in 10.0 mi SSW 10.4 mph - N/A   Overcast
12:55 PM 23.7 °F 14.0 °F 17.4 °F 77% 29.98 in 10.0 mi SSW 9.2 mph 19.6 mph N/A   Overcast
1:16 PM 23.9 °F 12.3 °F 17.6 °F 77% 29.97 in 10.0 mi SSW 12.7 mph 17.3 mph N/A   Overcast
1:36 PM 24.6 °F 14.4 °F 18.9 °F 79% 29.95 in 10.0 mi SSW 10.4 mph 17.3 mph N/A   Overcast
1:56 PM 25.2 °F 14.4 °F 19.4 °F 79% 29.94 in 10.0 mi South 11.5 mph - N/A   Overcast
2:16 PM 24.6 °F 13.8 °F 18.7 °F 78% 29.93 in 10.0 mi South 11.5 mph - N/A   Overcast
2:36 PM 25.2 °F 14.4 °F 18.9 °F 77% 29.92 in 2.5 mi South 11.5 mph - N/A   Haze
2:51 PM 25.7 °F 16.4 °F 18.5 °F 74% 29.90 in 10.0 mi South 9.2 mph - N/A   Scattered Clouds
3:11 PM 25.7 °F 17.1 °F 18.5 °F 74% 29.90 in 10.0 mi South 8.1 mph - N/A   Scattered Clouds
3:32 PM 25.9 °F 17.4 °F 19.0 °F 75% 29.88 in 10.0 mi SSE 8.1 mph - N/A   Scattered Clouds
3:52 PM 25.7 °F 15.7 °F 19.0 °F 76% 29.87 in 10.0 mi SSE 10.4 mph - N/A   Mostly Cloudy
4:12 PM 25.5 °F 16.9 °F 18.1 °F 74% 29.85 in 10.0 mi SSE 8.1 mph - N/A   Scattered Clouds
4:32 PM 25.0 °F 16.3 °F 17.6 °F 74% 29.84 in 10.0 mi SSE 8.1 mph - N/A   Clear
4:52 PM 25.0 °F 18.1 °F 17.6 °F 74% 29.82 in 10.0 mi SE 5.8 mph - N/A   Clear
5:12 PM 24.8 °F 19.1 °F 17.4 °F 74% 29.81 in 10.0 mi SE 4.6 mph - N/A   Clear
5:32 PM 24.1 °F 15.2 °F 17.4 °F 76% 29.79 in 10.0 mi SSE 8.1 mph - N/A   Clear
5:52 PM 24.6 °F 15.1 °F 18.0 °F 76% 29.77 in 10.0 mi SSE 9.2 mph - N/A   Clear
6:12 PM 25.5 °F 15.5 °F 18.5 °F 75% 29.77 in 10.0 mi SSE 10.4 mph - N/A   Clear
6:32 PM 26.6 °F 17.5 °F 19.6 °F 75% 29.77 in 10.0 mi South 9.2 mph - N/A   Mostly Cloudy
6:52 PM 27.5 °F 18.0 °F 20.3 °F 74% 29.76 in 10.0 mi SSE 10.4 mph 17.3 mph N/A   Overcast
7:12 PM 28.0 °F 18.6 °F 21.4 °F 76% 29.76 in 10.0 mi South 10.4 mph - N/A   Mostly Cloudy
7:33 PM 27.9 °F 17.8 °F 21.2 °F 76% 29.76 in 10.0 mi South 11.5 mph 16.1 mph N/A   Scattered Clouds
7:53 PM 27.3 °F 19.9 °F 20.8 °F 77% 29.76 in 10.0 mi South 6.9 mph - N/A   Clear
8:13 PM 27.5 °F 19.3 °F 20.8 °F 76% 29.75 in 10.0 mi SSE 8.1 mph - N/A   Clear
8:33 PM 27.0 °F 19.5 °F 20.7 °F 77% 29.74 in 10.0 mi SSE 6.9 mph - N/A   Clear
8:53 PM 27.0 °F 20.5 °F 20.8 °F 78% 29.73 in 10.0 mi SSE 5.8 mph - N/A   Clear
9:13 PM 27.3 °F - 21.2 °F 78% 29.73 in 10.0 mi Calm Calm - N/A   Clear
9:33 PM 28.6 °F 22.4 °F 22.5 °F 78% 29.73 in 10.0 mi South 5.8 mph - N/A   Clear
9:54 PM 35.4 °F 26.4 °F 27.3 °F 72% 29.72 in 10.0 mi SW 13.8 mph 23.0 mph N/A   Clear
10:14 PM 36.9 °F 28.7 °F 27.5 °F 69% 29.71 in 10.0 mi SW 12.7 mph 23.0 mph N/A   Clear
10:34 PM 36.9 °F 29.1 °F 27.3 °F 68% 29.71 in 10.0 mi SW 11.5 mph 18.4 mph N/A   Clear
10:54 PM 36.9 °F 28.2 °F 27.5 °F 69% 29.72 in 10.0 mi SW 13.8 mph 24.2 mph N/A   Clear
11:14 PM 36.7 °F 27.6 °F 26.6 °F 67% 29.72 in 10.0 mi WSW 15.0 mph 25.3 mph N/A   Clear
11:34 PM 36.5 °F 27.4 °F 27.7 °F 70% 29.72 in 10.0 mi WSW 15.0 mph 24.2 mph N/A   Clear
11:54 PM 36.5 °F 28.2 °F 27.9 °F 71% 29.71 in 10.0 mi WSW 12.7 mph 21.9 mph N/A   Clear